N0MR Weather Reports


time (UTC)temp
F
wind
direction
speed
knots
gust
knots
rain 1hr
in
rain 24hr
in
rain mn
in
humidity
%
barometer
mb
20260506201135 39 222 4.3 6.1 0.00 0.00 0.00 56 1014.1
20260506200135 39 222 4.3 6.1 0.00 0.00 0.00 56 1014.1
20260506195134 40 298 3.5 7.0 0.00 0.00 0.00 52 1014.2
20260506194134 40 298 3.5 7.0 0.00 0.00 0.00 52 1014.2
20260506193135 39 39 1.7 6.1 0.00 0.00 0.00 56 1014.1
20260506192135 39 39 1.7 6.1 0.00 0.00 0.00 56 1014.1
20260506191136 39 336 3.5 7.0 0.00 0.00 0.00 55 1014.2
20260506190136 39 336 3.5 7.0 0.00 0.00 0.00 55 1014.2
20260506185135 38 312 0.9 8.7 0.00 0.00 0.00 59 1014.3
20260506184136 38 312 0.9 8.7 0.00 0.00 0.00 59 1014.3
20260506183135 38 109 4.3 8.7 0.00 0.00 0.00 59 1014.3
20260506182135 38 109 4.3 8.7 0.00 0.00 0.00 59 1014.3
20260506181136 37 355 4.3 10.4 0.00 0.00 0.00 61 1014.3
20260506180136 37 355 4.3 10.4 0.00 0.00 0.00 61 1014.3
20260506174135 36 31 4.3 9.6 0.00 0.00 0.00 63 1014.5
20260506172136 36 355 0.9 7.0 0.00 0.00 0.00 63 1014.5
20260506171135 36 300 1.7 8.7 0.00 0.00 0.00 61 1014.6
20260506170136 37 243 1.7 7.0 0.00 0.00 0.00 60 1014.6
20260506165136 37 243 1.7 7.0 0.00 0.00 0.00 60 1014.6
20260506164136 37 322 0.9 7.8 0.00 0.00 0.00 59 1014.4
20260506163136 37 322 0.9 7.8 0.00 0.00 0.00 59 1014.4
20260506162135 36 298 4.3 7.0 0.00 0.00 0.00 59 1014.5
20260506161136 36 298 4.3 7.0 0.00 0.00 0.00 59 1014.5
20260506160136 36 189 2.6 7.0 0.00 0.00 0.00 61 1014.5
20260506155135 36 189 2.6 7.0 0.00 0.00 0.00 61 1014.5
20260506154135 36 277 0.9 7.0 0.00 0.00 0.00 60 1014.4
20260506153137 36 277 0.9 7.0 0.00 0.00 0.00 60 1014.4
20260506152137 35 355 1.7 7.8 0.00 0.00 0.00 63 1014.6
20260506151137 35 355 1.7 7.8 0.00 0.00 0.00 63 1014.6
20260506150137 35 348 1.7 7.0 0.00 0.00 0.00 64 1014.6
20260506145137 35 348 1.7 7.0 0.00 0.00 0.00 64 1014.6
20260506144136 34 350 2.6 7.0 0.00 0.00 0.00 66 1014.7
20260506143136 34 350 2.6 7.0 0.00 0.00 0.00 66 1014.7
20260506142140 34 236 1.7 6.1 0.00 0.00 0.00 68 1014.5
20260506141137 34 236 1.7 6.1 0.00 0.00 0.00 68 1014.5
20260506140137 33 280 1.7 7.0 0.00 0.00 0.00 70 1014.5
20260506135137 33 333 0.9 7.0 0.00 0.00 0.00 71 1014.5
20260506134137 33 333 0.9 7.0 0.00 0.00 0.00 71 1014.5
20260506133136 32 315 3.5 8.7 0.00 0.00 0.00 72 1014.5
20260506132137 32 315 3.5 8.7 0.00 0.00 0.00 72 1014.5
20260506131137 31 342 3.5 7.8 0.00 0.00 0.00 73 1014.5
20260506130138 31 342 3.5 7.8 0.00 0.00 0.00 73 1014.5
20260506125138 31 311 1.7 6.1 0.00 0.00 0.00 73 1014.3
20260506124137 31 311 1.7 6.1 0.00 0.00 0.00 73 1014.3
20260506123138 31 290 0.9 5.2 0.00 0.00 0.00 75 1014.0
20260506122138 31 290 0.9 5.2 0.00 0.00 0.00 75 1014.0
20260506121138 30 317 1.7 5.2 0.00 0.00 0.00 75 1013.8
20260506120138 30 317 1.7 5.2 0.00 0.00 0.00 75 1013.8
20260506115138 30 295 0.9 5.2 0.00 0.00 0.00 76 1013.6
20260506114138 30 295 0.9 5.2 0.00 0.00 0.00 76 1013.6
20260506113138 30 5 1.7 6.1 0.00 0.00 0.00 76 1013.5
20260506112137 30 5 1.7 6.1 0.00 0.00 0.00 76 1013.5
20260506111138 30 333 4.3 6.1 0.00 0.00 0.00 76 1013.4
20260506110138 30 333 4.3 6.1 0.00 0.00 0.00 76 1013.4
20260506105139 30 315 0.9 6.1 0.00 0.00 0.00 75 1013.4
20260506104138 30 310 0.9 4.3 0.00 0.00 0.00 75 1013.4
20260506103138 30 310 0.9 4.3 0.00 0.00 0.00 75 1013.4
20260506102139 30 297 1.7 5.2 0.00 0.00 0.00 75 1013.5
20260506101137 30 297 1.7 5.2 0.00 0.00 0.00 75 1013.5
20260506100138 30 265 0.9 4.3 0.00 0.00 0.00 75 1013.4
20260506094137 30 329 0.9 6.1 0.00 0.00 0.00 74 1013.4
20260506093138 30 329 0.9 6.1 0.00 0.00 0.00 74 1013.4
20260506092139 30 275 0.9 6.1 0.00 0.00 0.00 73 1013.4
20260506091138 30 275 0.9 6.1 0.00 0.00 0.00 73 1013.4
20260506090139 30 292 0.9 6.1 0.00 0.00 0.00 73 1013.4
20260506085138 30 292 0.9 6.1 0.00 0.00 0.00 73 1013.4
20260506084139 30 296 0.9 5.2 0.00 0.00 0.00 73 1013.4
20260506083139 30 296 0.9 5.2 0.00 0.00 0.00 73 1013.4
20260506082138 31 327 3.5 4.3 0.00 0.00 0.00 72 1013.4
20260506081139 31 327 3.5 4.3 0.00 0.00 0.00 72 1013.4
20260506080139 31 321 0.9 7.0 0.00 0.00 0.00 72 1013.3
20260506073138 31 297 0.9 7.0 0.00 0.00 0.00 70 1013.2
20260506072138 31 297 0.9 7.0 0.00 0.00 0.00 70 1013.2
20260506071139 31 340 3.5 6.1 0.00 0.00 0.00 68 1013.3
20260506070156 31 340 3.5 6.1 0.00 0.00 0.00 68 1013.3
20260506062140 32 283 0.9 6.1 0.00 0.00 0.00 66 1013.0
20260506061139 32 342 0.9 6.1 0.00 0.00 0.00 65 1013.1
20260506060141 32 342 0.9 6.1 0.00 0.00 0.00 65 1013.1
20260506051140 33 127 1.7 11.3 0.00 0.00 0.00 65 1012.9
20260506050141 33 127 1.7 11.3 0.00 0.00 0.00 65 1012.9
20260506044140 33 295 0.9 6.1 0.00 0.00 0.00 64 1013.0
20260506043141 33 265 0.9 7.0 0.00 0.00 0.00 65 1013.0
20260506042141 33 298 0.9 6.1 0.00 0.00 0.00 65 1012.9
20260506041141 33 298 0.9 6.1 0.00 0.00 0.00 65 1012.9
20260506034141 33 313 3.5 6.1 0.00 0.00 0.00 64 1012.7
20260506033140 33 313 3.5 6.1 0.00 0.00 0.00 64 1012.7
20260506032141 34 314 5.2 7.8 0.00 0.00 0.00 63 1012.6
20260506031141 34 314 5.2 7.8 0.00 0.00 0.00 63 1012.6
20260506030140 34 273 0.9 7.8 0.00 0.00 0.00 63 1012.6
20260506025141 34 273 0.9 7.8 0.00 0.00 0.00 63 1012.6
20260506024140 34 293 1.7 7.0 0.00 0.00 0.00 63 1012.4
20260506023141 34 293 1.7 7.0 0.00 0.00 0.00 63 1012.4
20260506022140 34 288 3.5 5.2 0.00 0.00 0.00 62 1012.3
20260506021142 34 288 3.5 5.2 0.00 0.00 0.00 62 1012.3
20260506020142 34 306 0.0 5.2 0.00 0.00 0.00 62 1012.0
20260506015142 34 306 0.0 5.2 0.00 0.00 0.00 62 1012.0
20260506014142 35 246 0.9 5.2 0.00 0.00 0.00 60 1011.8
20260506013142 35 246 0.9 5.2 0.00 0.00 0.00 60 1011.8
20260506012141 35 319 0.9 7.0 0.00 0.00 0.00 60 1011.5
20260506011141 36 306 0.9 7.8 0.00 0.00 0.00 59 1011.3
20260506010142 36 306 0.9 7.8 0.00 0.00 0.00 59 1011.3
20260506005142 36 16 1.7 4.3 0.00 0.00 0.00 58 1011.3
20260506004140 36 16 1.7 4.3 0.00 0.00 0.00 58 1011.3
20260506003141 37 322 0.9 7.8 0.00 0.00 0.00 56 1011.2
20260506002141 37 322 0.9 7.8 0.00 0.00 0.00 56 1011.2
20260506001141 37 287 4.3 7.8 0.00 0.00 0.00 54 1010.8
20260506000142 37 287 4.3 7.8 0.00 0.00 0.00 54 1010.8
20260505235142 37 274 1.7 7.0 0.00 0.00 0.00 55 1010.8
20260505234142 37 274 1.7 7.0 0.00 0.00 0.00 55 1010.8
20260505233141 38 292 1.7 7.8 0.00 0.00 0.00 54 1010.7
20260505232141 38 292 1.7 7.8 0.00 0.00 0.00 54 1010.7
20260505231141 38 196 0.9 7.8 0.00 0.00 0.00 54 1010.7
20260505230142 38 196 0.9 7.8 0.00 0.00 0.00 54 1010.7
20260505225141 38 241 0.9 7.8 0.00 0.00 0.00 53 1010.5
20260505224142 38 241 0.9 7.8 0.00 0.00 0.00 53 1010.5
20260505221142 38 279 4.3 8.7 0.00 0.00 0.00 55 1010.4
20260505220143 38 279 4.3 8.7 0.00 0.00 0.00 55 1010.4
20260505215141 38 300 1.7 11.3 0.00 0.00 0.00 55 1010.2
20260505214143 38 189 3.5 7.8 0.00 0.00 0.00 54 1010.1
20260505213143 38 189 3.5 7.8 0.00 0.00 0.00 54 1010.1
20260505212142 38 275 0.9 11.3 0.00 0.00 0.00 54 1009.9
20260505211143 38 275 0.9 11.3 0.00 0.00 0.00 54 1009.9
20260505210143 38 320 0.9 8.7 0.00 0.00 0.00 54 1009.9
20260505205142 38 320 0.9 8.7 0.00 0.00 0.00 54 1009.9
20260505204147 38 268 0.9 10.4 0.00 0.00 0.00 53 1009.8
20260505203142 38 268 0.9 10.4 0.00 0.00 0.00 53 1009.8
20260505202143 38 328 2.6 8.7 0.00 0.00 0.00 53 1009.8